Location: Chandrammap?lem
(16.9200°N, 81.0051°E)
Time: 11:15:48
(UTC+00:00)

Atlas Centaur 2 - Pass Details

Date: 29 May 2024
Orbit: 458 x 1277 km, 30.4° (Epoch: 14 June)

Event Time Altitude Azimuth Distance (km) Brightness Sun altitude
Rises 23:00:43 0° 307° (NW) 2,907 4.8 -14.0°
Reaches altitude 10° 23:04:17 10° 333° (NNW) 1,839 4.0 -13.3°
Maximum altitude 23:06:25 14° 4° (N) 1,537 4.0 -12.8°
Drops below altitude 10° 23:08:26 10° 36° (NE) 1,690 4.9 -12.4°
Sets 23:11:26 0° 65° (ENE) 2,495 6.9 -11.7°
